Weather in Chkalovo

Kazakhstan     53°37′30″N   70°26′02″E
temp.,
°C
wind,
m/s
gust,
m/s
humid.,
%
clouds,
%
prec.,
mm/h
press.,
hPa
HPBL,
m
15 april, thu
thu1500:00+5w37800 0.0 1031142
03:00+4w36770 0.0 103096
06:00+3w35775 0.0 103074
09:00+7w46673 0.0 1029182
12:00+13w45545 0.0 1027432
15:00+17w45475 0.0 1026720
18:00+17w45477 0.0 1024795
21:00+12wnw33685 0.0 102330
16 april, fri
fri1600:00+9wsw45705 0.0 102263
03:00+7wsw46705 0.0 102190
06:00+6wsw47720 0.0 102196
09:00+9w48600 0.0 1020247
12:00+14wnw45442 0.0 1019579
15:00+16nw55460 0.0 10181036
18:00+12nne10107535 0.0 1019600
21:00+7ne697899 0.0 1022552
17 april, sat
sat1700:00+6ene5877100 0.0 1022621
03:00+6ene4680100 0.0 1022586
06:00+5ene468295 0.0 1022430
09:00+5ene337799 0.0 1022424
12:00+7nne226695 0.0 1022844
15:00+9nnw344986 0.0 10211570
18:00+10nnw454278 0.0 10201799
21:00+7n225456 0.0 102010
18 april, sun
sun1800:00+6s115792 0.0 101910
03:00+6sw3356100 0.0 101738
06:00+5sw497694 0.0 1015166
09:00+8wsw6969100 0.2 1013955
12:00+10w8115097 0.3 10111669
15:00+10wnw10134975 0.1 10091796
18:00+6nw10154179 0.1 10121820
21:00−1nw1014565 0.0 10161312
19 april, mon
mon1900:00−3nnw91262100 0.1 10181397
03:00−5nnw81061100 0.1 10201114
06:00−6nnw710505 0.1 10231038
09:00−6nnw894292 0.0 10251415
12:00−3nnw8932100 0.0 10251833
15:00−2nnw8930100 0.0 10262407
18:00−2n71036100 0.0 10272213
21:00−3nnw594198 0.0 1028446